Home   Weather   Redcar   Past weeks
Flag for United Kingdom

Past Weather in Redcar, England, United Kingdom — Yesterday and Last 2 Weeks

Now
50 °F

Partly sunny.


Feels Like: 47 °F
Forecast: 52 / 38 °F
Wind: 7 mph from Northwest

Location: Tees-Side

Current Time: Oct 21, 2019 at 4:58:59 pm

Latest Report: Oct 21, 2019 at 4:20 pm


Visibility: N/A

Pressure: 30.18 "Hg

Humidity: 71%

Dew Point: 41 °F

Location of RedcarLocation

Past Weather in Redcar — Graph

°F

Redcar Temperature Yesterday

Maximum temperature yesterday: 50 °F (at 1:20 pm)
Minimum temperature yesterday: 46 °F (at 5:50 am)
Average temperature yesterday: 48 °F

High & Low Weather Summary for the Past Weeks

 TemperatureHumidityPressure
High59 °F (Oct 8, 2:20 pm)100% (Oct 13, 6:20 am)30.21 "Hg (Oct 13, 6:20 am)
Low39 °F (Oct 16, 9:50 pm)59% (Oct 8, 2:20 pm)29.33 "Hg (Oct 18, 2:20 pm)
Average51 °F85%29.62 "Hg
* Reported Oct 6 3:20 pm — Oct 21 3:50 pm, Redcar. Weather by CustomWeather, © 2019

Note: Actual official high and low records may vary slightly from our data, if they occured in-between our weather recording intervals... More about our weather records

Advertising

Redcar Weather History for the Previous 24 Hours

Scroll right to see more
 ConditionsComfort  
Time TempWeatherWind HumidityBarometerVisibility
3:50 pm
Mon, Oct 21
50 °FPartly sunny.7 mph71%30.18 "HgN/A
3:20 pm50 °FPartly sunny.9 mph71%30.18 "HgN/A
2:50 pm50 °FPartly sunny.10 mph71%30.18 "HgN/A
2:20 pm50 °FPartly sunny.10 mph71%30.21 "HgN/A
1:50 pm50 °FPartly sunny.13 mph71%30.21 "HgN/A
1:20 pm50 °FScattered clouds.15 mph76%30.21 "HgN/A
12:50 pm50 °FScattered clouds.13 mph76%30.21 "HgN/A
12:20 pm50 °FPartly sunny.13 mph76%30.21 "HgN/A
11:50 am50 °FPartly sunny.13 mph76%30.21 "HgN/A
11:20 am50 °FRain. Scattered clouds.13 mph76%30.18 "HgN/A
10:50 am48 °FScattered showers. Scattered clouds.12 mph87%30.18 "HgN/A
10:20 am48 °FScattered showers. Scattered clouds.13 mph87%30.18 "HgN/A
9:50 am46 °FSleet. Scattered clouds.7 mph93%30.18 "HgN/A
9:20 am46 °FSleet. Scattered clouds.8 mph93%30.18 "HgN/A
8:50 am46 °FScattered showers. Scattered clouds.7 mph87%30.18 "HgN/A
8:20 am46 °FScattered showers. Scattered clouds.8 mph87%30.18 "Hg6 mi
7:50 am46 °FScattered showers. Partly sunny.9 mph93%30.18 "HgN/A
7:20 am46 °FScattered showers. Passing clouds.13 mph93%30.15 "Hg6 mi
6:50 am48 °FScattered showers. Passing clouds.13 mph87%30.15 "HgN/A
6:20 am48 °FSprinkles. Partly cloudy.14 mph87%30.15 "HgN/A
5:50 am48 °FPassing clouds.12 mph94%30.15 "HgN/A
9:50 pm
Sun, Oct 20
46 °FLight rain. Passing clouds.13 mph100%30.07 "Hg3 mi
9:20 pm46 °FLight rain. Passing clouds.13 mph100%30.07 "Hg4 mi
8:50 pm46 °FLight rain. Passing clouds.14 mph93%30.07 "Hg2 mi
8:20 pm46 °FPassing clouds.13 mph93%30.07 "Hg4 mi
7:50 pm48 °FPassing clouds.14 mph87%30.07 "Hg3 mi
7:20 pm48 °FFog.16 mph94%30.07 "Hg3 mi
6:50 pm48 °FRain. Passing clouds.20 mph94%30.04 "Hg2 mi
6:20 pm48 °FLight rain. Passing clouds.15 mph94%30.01 "Hg1 mi
5:50 pm48 °FLight rain. Partly sunny.16 mph94%30.01 "Hg2 mi
5:20 pm48 °FLight rain. Partly sunny.17 mph94%29.98 "Hg3 mi
4:20 pm50 °FScattered clouds.21 mph88%29.98 "Hg3 mi
Weather by CustomWeather, © 2019

See weather overview